Location: Ehingen
(48.2869°N, 9.7112°E)
Time: 00:19:01
(UTC+01:00)

ISS - Pass Details

Date: 12 November 2017
Orbit: 402 x 407 km, 51.6° (Epoch: 22 November)

Event Time Altitude Azimuth Distance (km) Brightness Sun altitude
Exits shadow 05:52:31 34° 300° (WNW) 680 -3.2 -15.2°
Maximum altitude 05:53:46 76° 19° (NNE) 419 -3.8 -15.0°
Drops below altitude 10° 05:57:02 10° 106° (ESE) 1,454 0.4 -14.5°
Sets 05:59:06 0° 108° (ESE) 2,311 1.9 -14.2°
